Regional Weather Roundup
Issued by NWS Northern Indiana

Home | Current Version | Previous Version | Text Only | Print | Product List | Glossary On
Versions: 1 2 3 4 5 6 7 8 9 10 11 12 13 14 15 16 17 18 19 20 21 22 23 24 25 26 27 28 29 30 31 32 33 34 35 36 37 38 39 40 41 42 43 44 45 46 47 48 49 50
000
ASUS43 KIWX 242010
RWRIWX

KIWX WEATHER ROUNDUP
NATIONAL WEATHER SERVICE NORTHERN INDIANA
400 PM EDT SAT JUN 24 2017

NOTE: "FAIR" INDICATES FEW OR NO CLOUDS BELOW 12,000 FEET WITH NO
SIGNIFICANT WEATHER AND/OR OBSTRUCTIONS TO VISIBILITY.

* THESE STATIONS ARE NOT UNDER NWS QUALITY CONTROL. THEY ALSO MAY NOT
  REPORT WEATHER SUCH AS PRECIPITATION OR FOG.

INZ001>027-242100-
NORTHERN INDIANA

CITY           SKY/WX    TMP DP  RH WIND       PRES   REMARKS
GARY*          PTSUNNY   77  43  29 W16G32    30.00S
VALPARAISO     PTSUNNY   73  49  42 W15G23    30.00R
MICHIGAN CITY* MOSUNNY   72  54  53 NW12G17   30.00R
LAPORTE*       MOSUNNY   73  50  43 W14G22    30.00R
KNOX*          MOSUNNY   75  37  25 W17G25    29.99R
SOUTH BEND     MOSUNNY   73  53  49 NW22      29.98R
ELKHART*       MOSUNNY   73  50  43 W17       29.98R
GOSHEN         PTSUNNY   74  52  46 W10       29.97R
MONTICELLO*    MOSUNNY   74  51  43 W15       30.01R
LOGANSPORT*    MOSUNNY   72  54  53 W17       30.01S
ROCHESTER*     SUNNY     75  50  41 W16       29.99S
WARSAW*        MOSUNNY   73  54  49 W16G22    29.97S
AUBURN*        MOSUNNY   73  52  46 W10G23    29.97S
FORT WAYNE     PTSUNNY   76  53  44 W17G24    29.97S
HUNTINGTON*    PTSUNNY   72  52  49 W15G22    29.98S
PERU/GRISSOM   MOSUNNY   74  56  52 W16G26    29.99R

$$
INZ028>050-242100-
CENTRAL INDIANA

CITY           SKY/WX    TMP DP  RH WIND       PRES   REMARKS
LAFAYETTE      SUNNY     74  53  48 W18G24    30.02R
KOKOMO*        MOSUNNY   75  55  49 W18       30.01S
MUNCIE*        PTSUNNY   75  55  49 W17G23    30.00R
INDIANAPOLIS   PTSUNNY   75  53  46 W16       30.02S

$$
MIZ043>046-050>051-056>058-064>065-071>073-077>080-242100-
SOUTHWEST LOWER MICHIGAN

CITY           SKY/WX    TMP DP  RH WIND       PRES   REMARKS
BATTLE CREEK   MOSUNNY   73  51  46 W20G28    29.96R
BENTON HARBOR  SUNNY     71  54  54 W12       29.99R
COLDWATER*     PTSUNNY   74  49  41 W14       29.96R
HILLSDALE*     MOSUNNY   72  50  46 W14G25    29.94S
HOLLAND        SUNNY     70  54  56 W16G24    29.97S
GRAND RAPIDS   PTSUNNY   71  56  58 W22G29    29.94R
KALAMAZOO      PTSUNNY   72  51  47 W12G24    29.97R
STURGIS*       PTSUNNY   72  52  50 W13       29.96S
THREE RIVERS*  FAIR      73  51  46 NW16      29.97S

$$
OHZ001>008-015>018-024>025-242100-
NORTHWEST OHIO

CITY           SKY/WX    TMP DP  RH WIND       PRES   REMARKS
WAUSEON*       FAIR      77  54  44 W16G24    29.92F
DEFIANCE       PTSUNNY   74  57  55 NW12      29.94S
FINDLAY        MOSUNNY   79  54  41 W20G29    29.93F
TOLEDO EXPRESS PTSUNNY   74  54  49 W21       29.92R
TOLEDO METCALF PTSUNNY   79  55  43 W22G29    29.92S
LIMA           SUNNY     76  57  51 W18       29.96F

$$
AND FOR LAKE MICHIGAN COASTAL AND OPEN LAKE BUOY OBSERVATIONS

STATION/POSITION TEMP    WIND        PRES    VSBY  WAVE
                 AIR SEA DIR/SP/G                  HT/PER
                 (F)     (DEG/KT/KT) (MB)    (MI)  (FT/S)
CALUMET HARBOR    74     270/  8/ 18 1015.2R
MICHIGAN CITY     69     300/  8/ 10   N/A
BURNS HARBOR      69     300/ 11/ 13 1015.9R
SOUTH LAKE BUOY   65 63  300/ 10/ 12 1014.8S         1/ 3
4 MI NW BRIDGMAN  67 69  300/  8/ 10 1015.5          2/ 5
MICHIGAN CITY     68 68  330/  8/ 10   N/A           2/ 5

$$
&&




USA.gov is the U.S. government's official web portal to all federal, state and local government web resources and services.